Total_Precipitation_Accumulation
2.11 2.83 2.23 1.28 0.85 0.86 0.66 0.58 0.40 0.10 0.17 0.20 0.10 0.16 0.53 1.22 1.25 0.90 0.78 0.49 0.59 0.68 1.29 1.76 3.31 5.55 5.56 4.45 4.66 5.35 4.77 4.63 3.84 3.56 3.27 4.26 3.62 3.20 2.94 3.01 2.24 1.67 1.54 1.20
2.31 2.12 1.03 0.62 0.69 1.07 0.85 0.55 0.30 0.14 0.20 0.39 0.22 0.30 0.32 0.85 1.37 1.25 1.00 0.46 0.33 0.40 0.52 0.96 1.88 3.57 5.84 4.94 4.28 5.67 5.73 4.54 3.65 3.41 2.73 3.44 4.08 3.83 3.34 3.11 3.26 2.62 2.03 1.80
1.58 1.11 1.04 1.34 1.42 1.37 0.86 0.67 0.37 0.29 0.39 0.47 0.29 0.42 0.38 0.58 1.05 1.09 1.06 0.70 0.35 0.26 0.35 0.66 1.30 1.94 3.33 5.12 4.35 4.84 6.28 5.59 4.57 3.77 4.17 3.60 4.11 3.97 4.14 3.30 3.38 3.96 3.39 2.53
1.23 0.89 1.12 1.90 1.86 1.53 1.07 0.43 0.57 0.63 1.31 1.32 0.77 1.00 0.51 0.32 0.57 0.69 0.78 0.66 0.40 0.31 0.32 0.43 0.81 1.60 2.14 3.62 4.06 4.37 5.78 7.14 5.17 4.86 4.03 3.10 3.38 3.60 3.34 3.52 3.79 3.81 3.53 3.18
1.51 0.96 0.88 1.67 1.42 1.70 1.43 0.76 0.54 0.96 1.56 1.38 0.77 1.31 0.71 0.25 0.34 0.47 0.66 0.69 0.47 0.29 0.29 0.34 0.46 1.11 1.69 2.51 3.58 3.94 5.51 6.41 7.23 5.69 4.45 3.72 2.91 3.03 3.14 3.00 2.96 3.21 3.39 2.90
1.08 0.88 1.45 1.29 1.10 1.83 1.30 1.01 1.07 1.61 2.56 2.89 0.56 0.94 1.19 0.77 0.62 0.51 0.55 0.84 0.58 0.40 0.31 0.35 0.47 0.78 1.28 1.79 2.91 3.66 5.20 5.56 7.37 7.18 5.87 4.45 3.28 2.97 3.26 3.30 3.23 3.30 3.59 3.41
2.04 2.25 1.83 1.50 1.88 2.09 2.61 2.59 3.76 4.54 3.82 2.01 0.77 1.12 1.22 1.00 0.84 0.87 0.63 0.92 0.70 0.46 0.35 0.34 0.39 0.47 0.95 1.40 2.12 2.83 4.53 5.19 6.35 6.63 6.61 5.90 4.93 3.54 3.17 3.47 3.09 3.20 3.36 3.22
2.21 2.53 2.43 1.88 2.03 2.51 2.40 2.88 2.66 2.21 1.59 0.74 0.69 1.60 1.26 1.17 0.82 0.74 0.57 0.89 0.74 0.51 0.37 0.36 0.35 0.41 0.69 1.13 1.75 2.29 3.09 4.36 5.35 6.38 7.27 6.57 6.27 5.50 4.27 3.72 3.39 2.72 3.05 2.72
1.15 1.72 1.43 1.38 1.53 2.03 2.37 2.43 1.86 1.43 0.90 1.00 1.49 1.53 1.18 1.07 1.10 0.88 0.71 0.83 0.88 0.52 0.44 0.39 0.43 0.48 0.63 0.94 1.31 1.89 2.71 3.09 4.63 5.50 6.75 6.62 5.55 4.71 4.11 3.98 3.51 3.24 3.14 3.05
0.91 1.59 1.41 1.31 1.84 1.97 1.89 1.67 2.09 3.12 2.04 2.01 1.63 1.16 1.63 1.34 1.37 1.29 1.02 1.18 1.10 0.66 0.58 0.56 0.55 0.71 0.72 0.98 1.32 1.56 2.18 2.89 3.34 4.31 5.42 6.37 5.90 5.00 3.90 3.51 3.58 3.32 3.13 2.92
0.70 1.59 1.64 1.81 2.23 2.04 1.83 2.10 1.90 2.06 1.52 1.43 1.45 1.92 2.23 1.99 2.08 1.93 1.77 1.72 1.73 1.33 0.82 0.99 1.00 1.02 1.04 1.48 1.52 1.57 1.78 2.44 3.04 3.20 3.90 5.17 6.11 5.83 4.80 3.61 3.02 2.90 3.09 3.08
0.52 1.41 1.63 1.64 0.91 0.75 1.11 1.29 1.45 2.51 2.00 1.57 1.47 1.62 1.51 1.80 2.41 2.47 2.13 2.14 2.30 1.56 1.10 1.27 1.61 1.62 1.92 1.81 1.49 1.56 1.76 1.80 2.93 3.15 3.42 3.85 4.77 5.58 5.49 5.03 3.73 3.37 2.75 2.85
0.76 1.47 1.59 1.50 1.17 0.89 1.43 1.20 1.32 1.70 2.40 2.25 2.09 1.88 1.27 1.29 1.63 2.64 2.43 2.20 2.09 1.86 1.37 1.44 1.90 2.28 1.95 1.76 1.42 1.58 1.71 1.68 2.62 3.36 3.38 3.26 3.67 4.61 5.33 5.50 5.36 4.91 4.07 3.22
0.88 1.36 1.43 1.41 1.22 1.15 1.37 0.89 1.20 2.11 2.31 1.64 1.91 1.28 0.99 0.94 1.28 2.07 2.13 2.02 2.08 2.05 1.79 1.81 1.90 1.90 1.60 1.74 2.12 2.25 2.35 2.64 2.71 3.10 3.61 3.28 3.28 3.89 4.82 5.42 5.95 6.02 5.64 4.94
0.74 1.56 1.08 0.70 0.47 0.59 0.84 0.83 0.81 1.59 1.32 1.48 1.12 0.76 0.77 0.82 1.29 1.90 2.14 2.12 2.01 2.30 2.81 3.01 3.07 2.97 2.79 2.60 2.79 3.02 2.90 2.70 2.40 2.35 2.77 3.04 3.44 3.58 4.34 5.14 5.83 5.94 6.51 6.42
0.53 1.08 0.87 0.74 0.28 0.41 0.56 0.63 0.47 0.83 0.76 0.84 0.59 0.60 0.48 0.51 0.72 1.19 1.66 1.88 2.36 2.91 2.77 2.39 2.14 1.94 1.91 2.06 2.06 2.07 2.27 2.20 2.07 2.30 2.37 2.26 2.82 3.49 3.98 4.48 4.90 5.38 6.20 6.65
0.49 0.81 1.03 0.90 0.49 0.31 0.64 0.76 0.85 0.79 0.59 0.63 0.72 0.61 0.28 0.31 0.51 0.75 1.15 1.46 1.47 1.43 1.25 1.11 1.10 1.05 1.05 1.16 1.25 1.35 1.63 1.69 1.67 1.77 2.05 2.16 2.41 2.41 3.27 3.82 4.25 4.85 5.71 6.93
0.17 0.50 0.97 0.65 0.27 0.49 0.36 0.23 0.53 0.42 0.50 0.47 0.39 0.31 0.23 0.20 0.30 0.32 0.36 0.43 0.53 0.53 0.51 0.55 0.50 0.42 0.39 0.28 0.25 0.33 0.43 0.68 1.25 1.19 1.60 2.13 2.12 2.20 2.32 2.70 3.90 4.27 4.48 5.23
0.14 0.53 1.06 0.73 0.35 0.25 0.13 0.05 0.13 0.26 0.37 0.21 0.17 0.11 0.10 0.11 0.36 0.54 0.21 0.14 0.13 0.14 0.16 0.15 0.11 0.05 0.01 0.02 0.03 0.06 0.13 0.28 0.60 0.64 0.84 1.19 1.52 1.66 1.74 2.13 2.69 2.98 3.48 3.84
0.12 0.43 0.82 0.54 0.58 0.23 0.20 0.02 0.01 0.05 0.37 0.06 0.09 0.12 0.11 0.11 0.51 0.44 0.25 0.07 0.04 0.03 0.03 0.06 0.05 0.05 0.06 0.08 0.08 0.07 0.08 0.13 0.38 0.45 0.52 0.62 1.00 1.27 1.70 1.96 2.13 2.47 2.86 3.35
0.19 0.48 0.81 0.49 0.67 0.22 0.11 0.02 0.02 0.27 0.40 0.05 0.09 0.15 0.16 0.16 0.16 0.10 0.09 0.12 0.09 0.12 0.12 0.14 0.09 0.18 0.25 0.38 0.36 0.41 0.43 0.62 0.89 0.60 0.65 0.76 0.98 1.09 1.34 1.61 1.70 1.73 1.75 2.05
0.56 0.68 0.48 0.47 0.48 0.28 0.06 0.18 0.35 0.33 0.22 0.08 0.18 0.11 0.13 0.05 0.04 0.03 0.02 0.09 0.13 0.15 0.13 0.33 0.48 0.53 0.62 0.74 0.66 0.63 0.71 0.75 0.91 0.68 0.61 0.62 0.56 0.57 0.63 0.80 0.93 1.10 1.18 1.15
0.63 0.56 0.62 0.47 0.28 0.16 0.19 0.53 0.50 0.54 0.60 0.27 0.35 0.25 0.30 0.28 0.27 0.12 0.10 0.12 0.14 0.13 0.05 0.13 0.23 0.15 0.20 0.31 0.36 0.28 0.24 0.23 0.20 0.16 0.14 0.16 0.11 0.10 0.12 0.23 0.42 0.59 0.85 1.03
0.25 0.28 0.55 0.63 0.54 0.41 0.53 0.62 0.52 0.60 0.71 0.60 0.52 0.39 0.49 0.38 0.29 0.22 0.24 0.28 0.24 0.19 0.12 0.11 0.11 0.09 0.07 0.07 0.08 0.07 0.04 0.03 0.03 0.02 0.03 0.01 0.01 0.03 0.03 0.09 0.20 0.33 0.51 0.69
0.45 0.41 0.45 0.60 0.78 0.78 0.45 0.59 0.73 0.70 0.63 0.94 0.79 0.70 0.77 0.70 0.61 0.48 0.52 0.47 0.41 0.36 0.27 0.24 0.21 0.17 0.09 0.07 0.05 0.04 0.06 0.08 0.09 0.10 0.14 0.17 0.15 0.13 0.08 0.07 0.13 0.23 0.41 0.61
1.10 1.44 1.53 1.13 1.07 1.78 1.58 1.25 0.99 0.92 1.23 1.56 1.17 0.86 0.81 0.94 1.06 0.71 0.66 0.75 0.77 0.65 0.51 0.40 0.32 0.27 0.20 0.16 0.11 0.08 0.09 0.10 0.08 0.06 0.03 0.07 0.13 0.23 0.34 0.36 0.42 0.50 0.56 0.65